This demonstration page uses our WeatherBlox Daily Observations layout. Learn more.

Left ArrowRight Arrow

39.92423, -83.80882

Hourly Observations for July 23, 2020

Temp ( °F °C ) Dew Point ( °F °C ) Humidity (%) Winds ( mph kmh ) Pressure ( in mb ) Visibility ( mi km ) Precip ( " mm )
12:44 am 00:44 Cloudy with Nearby Thunderstorms 73 23 73 23 100 100 NNW 3 6 30.03 1017 10 16 N/A
12:56 am 00:56 Cloudy with Nearby Thunderstorms 74 23.3 74 23.3 100 100 W 5 7 30.06 1018 10 16 N/A
1:13 am 01:13 Cloudy with Nearby Thunderstorms 73 23 73 23 100 100 N N/A 30.03 1017 10 16 N/A
1:45 am 01:45 Cloudy 73 23 73 23 100 100 SW 6 9 30.02 1017 10 16 N/A
1:56 am 01:56 Mostly Cloudy 73 22.8 73 22.8 100 100 SW 5 7 30.04 1017 10 16 N/A
2:05 am 02:05 Partly Cloudy 73 23 73 23 100 100 SSW 3 6 30.01 1016 10 16 N/A
2:56 am 02:56 Clear 72 22.2 72 22.2 100 100 SW 9 15 30.03 1017 10 16 N/A
3:24 am 03:24 Mostly Clear 72 22 72 22 100 100 SW 8 13 30.00 1016 10 16 N/A
3:56 am 03:56 Partly Cloudy 72 22.2 72 22.2 100 100 SW 6 9 30.03 1017 9 14 N/A
4:56 am 04:56 Mostly Cloudy 72 22.2 72 22.2 100 100 WSW 5 7 30.04 1017 7 11 N/A
5:22 am 05:22 Mostly Clear 72 22 72 22 100 100 WSW 6 9 30.03 1017 9 14 N/A
5:56 am 05:56 Mostly Cloudy 72 22.2 72 22.2 100 100 SW 6 9 30.06 1018 9 14 N/A
6:04 am 06:04 Mostly Cloudy 72 22 72 22 100 100 SW 6 9 30.04 1017 8 13 N/A
6:38 am 06:38 Cloudy with Mist and Fog 72 22 72 22 100 100 undefined N/A 30.04 1017 5 8 N/A
6:53 am 06:53 Cloudy with Mist and Fog 72 22 72 22 100 100 SW 5 7 30.04 1017 5 8 N/A
6:56 am 06:56 Cloudy with Mist and Fog 72 22.2 72 22.2 100 100 SW 5 7 30.06 1018 5 8 N/A
7:08 am 07:08 Cloudy with Mist and Fog 72 22 72 22 100 100 SW 5 7 30.04 1017 5 8 N/A
7:46 am 07:46 Cloudy with Mist and Fog 73 23 73 23 100 100 SSW 3 6 30.05 1018 5 8 N/A
7:56 am 07:56 Cloudy with Mist and Fog 73 22.8 73 22.8 100 100 SW 5 7 30.07 1018 5 8 N/A
8:08 am 08:08 Cloudy with Mist and Fog 73 23 73 23 100 100 WSW 3 6 30.05 1018 5 8 N/A
8:56 am 08:56 Cloudy 74 23.3 74 23.3 100 100 WSW 7 11 30.08 1019 8 13 N/A
9:56 am 09:56 Cloudy 74 23.3 74 23.3 100 100 WSW 8 13 30.09 1019 9 14 N/A
10:38 am 10:38 Cloudy 75 24 75 24 100 100 SW 6 9 30.06 1018 9 14 N/A
10:56 am 10:56 Cloudy with Light Rain 75 23.9 75 23.9 100 100 SW 6 9 30.09 1019 7 11 0.00 0.00
11:06 am 11:06 Cloudy with Nearby Thunderstorms 75 24 75 24 100 100 SW 7 11 30.07 1018 5 8 0.03 0.76
11:14 am 11:14 Cloudy with Strong Thunderstorms 73 23 73 23 100 100 W 15 24 30.08 1019 3 4 0.18 4.57
11:18 am 11:18 Cloudy with Strong Thunderstorms 72 22 72 22 100 100 W 15 24 30.07 1018 1 2 0.40 10.16
11:21 am 11:21 Cloudy with Strong Thunderstorms 72 22 72 22 100 100 W 8 13 30.07 1018 1 2 0.51 12.95
11:24 am 11:24 Cloudy with Strong Thunderstorms 72 22 72 22 100 100 W 8 13 30.08 1019 1 2 0.57 14.48
11:34 am 11:34 Cloudy with Strong Thunderstorms 72 22 72 22 100 100 W 8 13 30.08 1019 3 4 0.72 18.29
11:39 am 11:39 Cloudy with Thunderstorms 72 22 72 22 100 100 W 8 13 30.08 1019 4 6 0.73 18.54
11:56 am 11:56 Cloudy with Thunderstorms 72 22.2 72 22.2 100 100 WSW 7 11 30.11 1020 7 11 0.75 19.05
12:17 pm 12:17 Cloudy with Light Rain 72 22 72 22 100 100 W 8 13 30.08 1019 6 10 0.02 0.51
12:24 pm 12:24 Cloudy with Nearby Thunderstorms 73 23 73 23 100 100 W 6 9 30.07 1018 6 10 0.03 0.76
12:31 pm 12:31 Cloudy with Nearby Thunderstorms 73 23 73 23 100 100 W 7 11 30.07 1018 6 10 0.03 0.76
12:39 pm 12:39 Cloudy with Light Rain 73 23 73 23 100 100 WNW 7 11 30.07 1018 6 10 0.03 0.76
12:44 pm 12:44 Cloudy with Light Rain 73 23 73 23 100 100 W 5 7 30.07 1018 6 10 0.03 0.76
12:56 pm 12:56 Cloudy with Light Rain 74 23.3 74 23.3 100 100 WSW 5 7 30.09 1019 7 11 0.04 1.02
1:37 pm 13:37 Cloudy 75 24 75 24 100 100 W 7 11 30.06 1018 10 16 0.00 0.00
1:45 pm 13:45 Cloudy 75 24 75 24 100 100 WSW 6 9 30.06 1018 10 16 0.00 0.00
1:56 pm 13:56 Cloudy 77 25 76 24.4 96 96 W 8 13 30.08 1019 10 16 0.00 0.00
2:08 pm 14:08 Cloudy 77 25 75 24 94 94 W 9 15 30.05 1018 10 16 N/A
2:43 pm 14:43 Cloudy 79 26 75 24 89 89 WSW 8 13 30.04 1017 10 16 N/A
2:56 pm 14:56 Cloudy 78 25.6 75 23.9 90 90 WSW 7 11 30.07 1018 10 16 N/A
3:56 pm 15:56 Mostly Cloudy 80 26.7 75 23.9 85 85 SSW 6 9 30.06 1018 10 16 N/A
4:09 pm 16:09 Mostly Cloudy 81 27 75 24 84 84 SSW 5 7 30.02 1016 10 16 N/A
4:40 pm 16:40 Mostly Cloudy 82 28 73 23 74 74 WSW 6 9 30.01 1016 10 16 N/A
4:48 pm 16:48 Mostly Cloudy 81 27 73 23 79 79 W 5 7 30.02 1016 7 11 N/A
4:56 pm 16:56 Mostly Cloudy with Light Rain 79 26.1 77 25 94 94 VRB 3 6 30.04 1017 7 11 0.00 0.00
5:56 pm 17:56 Mostly Cloudy 81 27.2 74 23.3 79 79 N N/A 30.05 1018 10 16 0.00 0.00
6:56 pm 18:56 Cloudy 81 27.2 70 21.1 69 69 NW 6 9 30.04 1017 10 16 N/A
7:56 pm 19:56 Mostly Cloudy 81 27.2 70 21.1 69 69 NNW 6 9 30.05 1018 10 16 N/A
8:56 pm 20:56 Sunny 78 25.6 70 21.1 76 76 NW 3 6 30.07 1018 10 16 N/A
9:56 pm 21:56 Clear 73 22.8 72 22.2 96 96 N N/A 30.08 1019 10 16 N/A
10:56 pm 22:56 Clear 70 21.1 70 21.1 100 100 N N/A 30.09 1019 10 16 N/A
11:56 pm 23:56 Clear 69 20.6 69 20.6 100 100 SSW 5 7 30.10 1019 9 14 N/A

Powered by AerisWeather